Date,TemperatureHighF,TemperatureAvgF,TemperatureLowF,DewpointHighF,DewpointAvgF,DewpointLowF,HumidityHigh,HumidityAvg,HumidityLow,PressureMaxIn,PressureMinIn,WindSpeedMaxMPH,WindSpeedAvgMPH,GustSpeedMaxMPH,PrecipitationSumIn
2013-1-1,19.6,3.3,-16.6,-10.7,-31.4,-49.4,25,17,16,29.12,28.85,10,2,10,0.00
2013-1-2,25.0,18.9,15.3,-3.9,-10.8,-16.2,35,26,17,28.94,28.79,11,4,11,0.00
2013-1-3,21.2,12.8,5.5,-15.7,-23.2,-29.8,20,18,15,29.09,28.91,9,3,9,0.00
2013-1-4,38.7,19.5,8.1,-2.3,-13.6,-24.3,35,23,14,28.97,28.85,9,1,9,0.00
2013-1-5,32.9,16.5,7.0,0.2,-14.2,-21.9,35,25,15,28.94,28.70,6,1,6,0.00
2013-1-6,32.2,15.2,4.3,-10.3,-19.5,-26.1,24,19,15,29.06,28.82,17,3,17,0.00
2013-1-7,43.2,28.1,18.7,-0.7,-10.6,-18.1,35,18,13,28.82,28.73,17,4,19,0.00
2013-1-8,38.7,25.2,14.9,1.9,-6.9,-14.1,40,26,14,28.82,28.59,17,3,17,0.00
2013-1-9,40.1,29.8,21.7,-6.3,-11.4,-16.4,22,16,13,29.18,28.88,10,3,10,0.00
2013-1-10,43.0,35.2,28.6,25.6,-3.6,-13.2,67,21,13,29.09,28.59,15,8,15,0.16
2013-1-11,41.9,38.3,35.4,36.5,28.9,18.1,81,69,44,28.59,28.26,12,6,12,0.04
2013-1-12,37.4,13.7,0.0,31.2,-18.6,-35.7,78,24,15,28.91,28.26,11,4,13,0.04
2013-1-13,14.2,2.5,-2.6,-23.8,-33.4,-37.6,16,16,16,29.06,28.91,6,2,8,0.00
2013-1-14,19.0,6.3,-2.2,-20.9,-29.9,-37.3,17,16,15,29.23,29.06,9,2,9,0.00
2013-1-15,32.9,14.9,3.2,-9.8,-22.5,-31.8,19,17,15,29.09,28.91,14,4,14,0.00
2013-1-16,37.0,24.3,7.3,11.2,-12.4,-28.5,40,20,14,29.06,28.53,9,2,9,0.00
2013-1-17,25.2,11.7,-0.6,-13.8,-25.0,-34.9,19,17,15,29.21,29.06,6,2,8,0.00
2013-1-18,45.3,28.3,15.4,7.6,-7.9,-22.7,43,22,12,29.12,28.59,12,4,13,0.00
2013-1-19,44.1,21.2,-0.9,13.7,-9.8,-35.2,46,27,13,29.09,28.56,18,4,19,0.20
2013-1-20,11.8,1.4,-5.4,-24.6,-33.8,-40.0,17,17,16,29.23,29.09,11,3,11,0.20
2013-1-21,-0.2,-8.4,-15.0,-35.7,-42.5,-48.0,16,16,16,29.18,29.09,8,3,11,0.00
2013-1-22,6.4,-4.6,-18.4,-30.2,-39.4,-50.9,16,16,16,29.21,29.06,8,1,10,0.00
2013-1-23,20.7,5.7,-8.0,-17.2,-30.2,-41.1,18,17,15,29.41,28.97,16,3,16,0.00
2013-1-24,12.2,1.2,-8.7,-24.3,-33.4,-41.7,17,17,17,29.47,28.97,15,6,16,0.00
2013-1-25,19.0,11.1,-2.2,-17.8,-26.1,-37.3,18,16,15,29.12,28.79,13,4,15,0.00
2013-1-26,23.2,10.9,-5.4,-15.2,-26.1,-40.0,17,16,15,29.15,28.94,11,4,11,0.00
2013-1-27,33.1,29.1,22.1,15.0,-2.2,-16.0,49,28,15,28.94,28.64,10,4,11,0.00
2013-1-28,36.7,33.4,30.6,27.2,17.5,8.0,77,53,31,28.73,28.50,11,3,11,0.12
2013-1-29,39.9,32.9,26.1,26.8,6.0,-14.2,75,40,10,28.61,28.41,10,2,12,0.04
2013-1-30,25.9,16.1,5.7,-13.8,-20.9,-29.7,19,17,15,28.61,28.53,13,4,15,0.04
2013-1-31,8.8,-3.0,-17.7,-28.2,-36.9,-49.3,17,17,17,29.15,28.61,15,4,15,0.00